Location: Ferintosh
(52.7647°N, 112.9692°W)
Time: 23:12:32
(UTC+00:00)

A-11 Canister half - Pass Details

Date: 26 May 2024
Orbit: 1524 x 1683 km, 47.3° (Epoch: 20 June)

Event Time Altitude Azimuth Distance (km) Brightness Sun altitude
Rises 11:49:25 0° 282° (WNW) 4,813 11.2 2.9°
Reaches altitude 10° 11:55:50 10° 252° (WSW) 3,864 10.5 3.8°
Maximum altitude 11:58:16 11° 237° (WSW) 3,785 10.4 4.1°
Drops below altitude 10° 12:00:44 10° 222° (SW) 3,889 10.5 4.4°
Sets 12:07:19 0° 192° (SSW) 4,902 11.3 5.3°
